• In Uzbekistan
  • List of Countries
  • For 7 days
  • Water Temperature
  • Satellite Maps
  • Weather Map
  • Weather Widgets
  • user-avatar
    Login

    Hourly Weather Ashtarak

    Today, 23 August, Wednesday

    Time Temperature Precipitation Wind Pressure Humidity
    00:00 +22°C° 0 mm 3 mps 656 mmHg 58%
    01:00 +22°C° 0 mm 3 mps 656 mmHg 58%
    02:00 +21°C° 0 mm 3 mps 656 mmHg 59%
    03:00 +21°C° 0 mm 2 mps 655 mmHg 57%
    04:00 +21°C° 0 mm 2 mps 656 mmHg 57%
    05:00 +21°C° 0 mm 2 mps 656 mmHg 57%
    06:00 +21°C° 0 mm 2 mps 656 mmHg 57%
    07:00 +24°C° 0 mm 2 mps 657 mmHg 50%
    08:00 +27°C° 0 mm 2 mps 657 mmHg 43%
    09:00 +29°C° 0 mm 2 mps 658 mmHg 36%
    10:00 +30°C° 0 mm 2 mps 658 mmHg 33%
    11:00 +32°C° 0 mm 2 mps 658 mmHg 30%
    12:00 +34°C° 0 mm 2 mps 658 mmHg 26%
    13:00 +34°C° 0 mm 2 mps 658 mmHg 26%
    14:00 +35°C° 0 mm 3 mps 658 mmHg 25%
    15:00 +35°C° 0 mm 3 mps 658 mmHg 24%
    16:00 +34°C° 0 mm 3 mps 658 mmHg 29%
    17:00 +31°C° 0 mm 3 mps 658 mmHg 34%
    18:00 +30°C° 0 mm 4 mps 658 mmHg 39%
    19:00 +28°C° 0 mm 4 mps 658 mmHg 42%
    20:00 +26°C° 0 mm 4 mps 658 mmHg 46%
    21:00 +23°C° 0 mm 4 mps 658 mmHg 49%
    22:00 +22°C° 0 mm 4 mps 658 mmHg 49%
    23:00 +22°C° 0 mm 3 mps 658 mmHg 48%

    Tomorrow, 24 August, Thursday

    Time Temperature Precipitation Wind Pressure Humidity
    00:00 +21°C° 0 mm 3 mps 658 mmHg 48%
    01:00 +20°C° 0 mm 3 mps 658 mmHg 49%
    02:00 +20°C° 0 mm 3 mps 658 mmHg 51%
    03:00 +19°C° 0 mm 3 mps 658 mmHg 52%
    04:00 +19°C° 0 mm 2 mps 658 mmHg 54%
    05:00 +19°C° 0 mm 2 mps 658 mmHg 55%
    06:00 +19°C° 0 mm 2 mps 659 mmHg 57%
    07:00 +21°C° 0 mm 2 mps 659 mmHg 50%
    08:00 +25°C° 0 mm 2 mps 660 mmHg 44%
    09:00 +27°C° 0 mm 2 mps 660 mmHg 37%
    10:00 +29°C° 0 mm 2 mps 660 mmHg 33%
    11:00 +30°C° 0 mm 2 mps 660 mmHg 30%
    12:00 +32°C° 0 mm 2 mps 661 mmHg 26%
    13:00 +33°C° 0 mm 3 mps 660 mmHg 25%
    14:00 +34°C° 0 mm 3 mps 660 mmHg 25%
    15:00 +34°C° 0 mm 3 mps 660 mmHg 24%
    16:00 +33°C° 0 mm 3 mps 660 mmHg 28%
    17:00 +31°C° 0 mm 3 mps 659 mmHg 31%
    18:00 +30°C° 0 mm 3 mps 659 mmHg 35%
    19:00 +28°C° 0 mm 3 mps 659 mmHg 39%
    20:00 +26°C° 0 mm 3 mps 659 mmHg 42%
    21:00 +24°C° 0 mm 3 mps 660 mmHg 45%
    22:00 +22°C° 0 mm 3 mps 660 mmHg 45%
    23:00 +21°C° 0 mm 3 mps 660 mmHg 45%

    Day after tomorrow, 25 August, Friday

    Time Temperature Precipitation Wind Pressure Humidity
    00:00 +21°C° 0 mm 3 mps 660 mmHg 45%
    01:00 +20°C° 0 mm 3 mps 660 mmHg 46%
    02:00 +20°C° 0 mm 3 mps 660 mmHg 48%
    03:00 +19°C° 0 mm 3 mps 660 mmHg 49%
    04:00 +19°C° 0 mm 3 mps 660 mmHg 50%
    05:00 +19°C° 0 mm 3 mps 660 mmHg 51%
    06:00 +18°C° 0 mm 2 mps 660 mmHg 52%
    07:00 +21°C° 0 mm 2 mps 660 mmHg 46%
    08:00 +24°C° 0 mm 2 mps 661 mmHg 41%
    09:00 +27°C° 0 mm 2 mps 661 mmHg 35%
    10:00 +28°C° 0 mm 2 mps 661 mmHg 32%
    11:00 +30°C° 0 mm 2 mps 661 mmHg 29%
    12:00 +31°C° 0 mm 2 mps 661 mmHg 27%
    13:00 +32°C° 0 mm 2 mps 661 mmHg 26%
    14:00 +33°C° 0 mm 3 mps 660 mmHg 25%
    15:00 +33°C° 0 mm 3 mps 660 mmHg 25%
    16:00 +31°C° 0 mm 3 mps 660 mmHg 27%
    17:00 +30°C° 0 mm 3 mps 660 mmHg 30%
    18:00 +29°C° 0 mm 4 mps 659 mmHg 32%
    19:00 +27°C° 0 mm 4 mps 660 mmHg 34%
    20:00 +25°C° 0 mm 4 mps 660 mmHg 35%
    21:00 +22°C° 0 mm 4 mps 660 mmHg 36%
    22:00 +21°C° 0 mm 3 mps 660 mmHg 36%
    23:00 +20°C° 0 mm 3 mps 660 mmHg 36%

    26 August, Saturday

    Time Temperature Precipitation Wind Pressure Humidity
    00:00 +20°C° 0 mm 3 mps 660 mmHg 35%
    01:00 +19°C° 0 mm 3 mps 660 mmHg 36%
    02:00 +19°C° 0 mm 3 mps 660 mmHg 37%
    03:00 +18°C° 0 mm 3 mps 659 mmHg 37%
    04:00 +18°C° 0 mm 3 mps 659 mmHg 39%
    05:00 +17°C° 0 mm 3 mps 659 mmHg 41%
    06:00 +17°C° 0 mm 3 mps 659 mmHg 43%
    07:00 +20°C° 0 mm 2 mps 660 mmHg 38%
    08:00 +23°C° 0 mm 2 mps 660 mmHg 34%
    09:00 +26°C° 0 mm 2 mps 661 mmHg 29%
    10:00 +27°C° 0 mm 2 mps 661 mmHg 27%
    11:00 +28°C° 0 mm 2 mps 660 mmHg 25%
    12:00 +30°C° 0 mm 2 mps 660 mmHg 23%
    13:00 +30°C° 0 mm 2 mps 660 mmHg 23%
    14:00 +31°C° 0 mm 2 mps 660 mmHg 23%
    15:00 +31°C° 0 mm 3 mps 659 mmHg 23%
    16:00 +30°C° 0 mm 3 mps 659 mmHg 26%
    17:00 +29°C° 0 mm 3 mps 659 mmHg 29%
    18:00 +28°C° 0 mm 3 mps 659 mmHg 32%
    19:00 +26°C° 0 mm 3 mps 659 mmHg 35%
    20:00 +24°C° 0 mm 3 mps 659 mmHg 38%
    21:00 +21°C° 0 mm 3 mps 659 mmHg 41%
    22:00 +20°C° 0 mm 3 mps 659 mmHg 41%
    23:00 +20°C° 0 mm 3 mps 659 mmHg 41%

    27 August, Sunday

    Time Temperature Precipitation Wind Pressure Humidity
    00:00 +19°C° 0 mm 3 mps 659 mmHg 41%
    01:00 +18°C° 0 mm 3 mps 659 mmHg 43%
    02:00 +18°C° 0 mm 3 mps 659 mmHg 45%
    03:00 +17°C° 0 mm 2 mps 658 mmHg 47%
    04:00 +17°C° 0 mm 2 mps 658 mmHg 47%
    05:00 +17°C° 0 mm 2 mps 659 mmHg 48%
    06:00 +17°C° 0 mm 2 mps 659 mmHg 48%
    07:00 +20°C° 0 mm 2 mps 659 mmHg 42%
    08:00 +23°C° 0 mm 2 mps 659 mmHg 37%
    09:00 +25°C° 0 mm 2 mps 660 mmHg 31%
    10:00 +27°C° 0 mm 2 mps 660 mmHg 29%
    11:00 +28°C° 0 mm 2 mps 660 mmHg 27%
    12:00 +30°C° 0 mm 2 mps 659 mmHg 25%
    13:00 +30°C° 0 mm 2 mps 659 mmHg 24%
    14:00 +31°C° 0 mm 2 mps 659 mmHg 23%
    15:00 +31°C° 0 mm 2 mps 659 mmHg 23%
    16:00 +30°C° 0 mm 3 mps 658 mmHg 26%
    17:00 +29°C° 0 mm 3 mps 658 mmHg 29%
    18:00 +28°C° 0 mm 3 mps 658 mmHg 32%
    19:00 +26°C° 0 mm 3 mps 658 mmHg 37%
    20:00 +24°C° 0 mm 3 mps 658 mmHg 41%
    21:00 +21°C° 0 mm 3 mps 658 mmHg 46%
    22:00 +20°C° 0 mm 3 mps 658 mmHg 48%
    23:00 +20°C° 0 mm 3 mps 658 mmHg 50%

    28 August, Monday

    Time Temperature Precipitation Wind Pressure Humidity
    00:00 +19°C° 0 mm 2 mps 658 mmHg 52%
    01:00 +19°C° 0 mm 2 mps 658 mmHg 54%
    02:00 +18°C° 0 mm 2 mps 658 mmHg 57%
    03:00 +18°C° 0 mm 2 mps 658 mmHg 60%
    04:00 +18°C° 0 mm 2 mps 658 mmHg 60%
    05:00 +18°C° 0 mm 2 mps 658 mmHg 60%
    06:00 +18°C° 0 mm 2 mps 658 mmHg 61%
    07:00 +20°C° 0 mm 2 mps 658 mmHg 53%
    08:00 +24°C° 0 mm 2 mps 659 mmHg 45%
    09:00 +26°C° 0 mm 1 mps 659 mmHg 37%
    10:00 +28°C° 0 mm 2 mps 659 mmHg 34%
    11:00 +29°C° 0 mm 2 mps 659 mmHg 30%
    12:00 +31°C° 0 mm 3 mps 659 mmHg 27%
    13:00 +31°C° 0 mm 3 mps 658 mmHg 26%
    14:00 +33°C° 0 mm 3 mps 658 mmHg 25%
    15:00 +33°C° 0 mm 3 mps 658 mmHg 24%
    16:00 +31°C° 0 mm 2 mps 657 mmHg 27%
    17:00 +30°C° 0 mm 2 mps 657 mmHg 30%
    18:00 +28°C° 0 mm 2 mps 657 mmHg 34%
    19:00 +27°C° 0.1 mm 2 mps 657 mmHg 39%
    20:00 +25°C° 0.1 mm 2 mps 657 mmHg 44%
    21:00 +22°C° 0.1 mm 3 mps 657 mmHg 49%
    22:00 +21°C° 0 mm 2 mps 657 mmHg 50%
    23:00 +21°C° 0 mm 2 mps 657 mmHg 52%
    Show more